Regional Weather Roundup
Issued by NWS Northern Indiana

Home | Current Version | Previous Version | Graphics & Text | Print | Product List | Glossary On
Versions: 1 2 3 4 5 6 7 8 9 10 11 12 13 14 15 16 17 18 19 20 21 22 23 24 25 26 27 28 29 30 31 32 33 34 35 36 37 38 39 40 41 42 43 44 45 46 47 48 49 50
000
ASUS43 KIWX 251500
RWRIWX

KIWX WEATHER ROUNDUP
NATIONAL WEATHER SERVICE NORTHERN INDIANA
1100 AM EDT THU AUG 25 2016

NOTE: "FAIR" INDICATES FEW OR NO CLOUDS BELOW 12,000 FEET WITH NO
SIGNIFICANT WEATHER AND/OR OBSTRUCTIONS TO VISIBILITY.

* THESE STATIONS ARE NOT UNDER NWS QUALITY CONTROL. THEY ALSO MAY NOT
  REPORT WEATHER SUCH AS PRECIPITATION OR FOG.

INZ001>027-251600-
NORTHERN INDIANA

CITY           SKY/WX    TMP DP  RH WIND       PRES   REMARKS
GARY*          CLOUDY    75  72  88 W10       30.01R
VALPARAISO     CLOUDY    75  70  83 W12       30.02S
KNOX*          SUNNY     77  50  38 SW9       30.01S
SOUTH BEND     MOSUNNY   77  70  79 SW12      30.01R
GOSHEN         SUNNY     78  69  73 SW12      30.01S
MONTICELLO*    SUNNY     76  67  72 SW7       30.04S
WARSAW*        MOSUNNY   77  73  88 W6        30.03R
ANGOLA*        SUNNY     79  72  78 SW9       30.02R
FORT WAYNE     NOT AVBL
PERU/GRISSOM   SUNNY     79  72  78 SW13      30.04R

$$
INZ028>050-251600-
CENTRAL INDIANA

CITY           SKY/WX    TMP DP  RH WIND       PRES   REMARKS
LAFAYETTE      SUNNY     78  70  76 VRB6      30.04F
MUNCIE*        SUNNY     82  74  76 S12       30.05R
INDIANAPOLIS   MOSUNNY   84  75  74 SW10      30.06R

$$
MIZ043>046-050>051-056>058-064>065-071>073-077>080-251600-
SOUTHWEST LOWER MICHIGAN

CITY           SKY/WX    TMP DP  RH WIND       PRES   REMARKS
BATTLE CREEK   CLOUDY    72  71  97 W10       30.00R
BENTON HARBOR  CLOUDY    74  69  85 SW12      29.99R
COLDWATER*     MOSUNNY   76  71  83 SW8       30.00F
HILLSDALE*     PTSUNNY   78  70  77 SW8       30.01S
HOLLAND        CLOUDY    76  69  79 W6        29.97S
GRAND RAPIDS   PTSUNNY   77  70  79 SW12      29.97S
KALAMAZOO      PTSUNNY   76  69  79 W10       29.99S
STURGIS*       CLOUDY    78  69  73 SW10      30.00S
THREE RIVERS*  FAIR      78  72  80 W6        30.01R

$$
OHZ001>008-015>018-024>025-251600-
NORTHWEST OHIO

CITY           SKY/WX    TMP DP  RH WIND       PRES   REMARKS
DEFIANCE       MOSUNNY   78  72  81 W6        30.02R
FINDLAY        CLOUDY    81  72  74 SW8       30.02S
TOLEDO EXPRESS CLOUDY    77  74  90 SW8       30.00S
TOLEDO METCALF MOSUNNY   79  74  84 SW10      30.01F
LIMA           SUNNY     81  74  79 S8        30.05R

$$
AND FOR LAKE MICHIGAN COASTAL AND OPEN LAKE BUOY OBSERVATIONS

STATION/POSITION TEMP    WIND        PRES    VSBY  WAVE
                 AIR SEA DIR/SP/G                  HT/PER
                 (F)     (DEG/KT/KT) (MB)    (MI)  (FT/S)
CALUMET HARBOR    73     230/  6/ 12 1015.3R
MICHIGAN CITY     73     190/ 12/ 14   N/A
BURNS HARBOR      74     240/ 10/ 17 1016.3R
SAINT JOSEPH      74     230/ 14/ 17 1015.2F
SOUTH LAKE BUOY   73 74  350/  8/ 10 1014.4          1/ 4
4 MI NW BRIDGMAN  73 74  230/ 14/ 19 1014.8F         3/ 4
MICHIGAN CITY     73 74  220/ 10/ 12   N/A           1/ 2

$$
&&




USA.gov is the U.S. government's official web portal to all federal, state and local government web resources and services.